Location: *
(46.1006°N, 1.8394°E)
Time: 02:59:36
(UTC+00:00)

Cosmos 1371 Rocket - Pass Details

Date: 20 September 2019
Orbit: 753 x 790 km, 74.0° (Epoch: 22 October)

Event Time Altitude Azimuth Distance (km) Brightness Sun altitude
Rises 19:18:42 0° 195° (SSW) 3,240 7.2 -15.1°
Reaches altitude 10° 19:21:03 10° 193° (SSW) 2,323 6.4 -15.5°
Maximum altitude 19:26:20 76° 109° (ESE) 812 3.9 -16.3°
Drops below altitude 10° 19:31:41 10° 25° (NNE) 2,359 6.5 -17.2°
Sets 19:34:06 0° 24° (NNE) 3,294 7.3 -17.6°
